Back to catalog

COSMOS 2251 DEB

AliveLEO
NORAD 36371·DEBRIS·🇷🇺 Russia

Launched Jun 16, 1993 from Plesetsk Cosmodrome

Loading…

Next Passes (next 24 hours)

TLE

AgingSource: Space-Track

Epoch: Sep 10, 2026, 00:20 UTC

1 36371U 93036AYY 26253.01403971  .00007347  00000-0  10672-2 0  9993
2 36371  74.0131 351.6355 0010333 329.9082  30.1497 14.76101374754418

Track COSMOS 2251 DEB in real time with AllMySat

Download on the App Store